This demonstration page uses our WeatherBlox Daily Observations layout. Learn more.

Left ArrowRight Arrow

Hourly Observations for November 20, 2016

Temp ( °F °C ) Dew Point ( °F °C ) Humidity (%) Winds ( mph kmh ) Pressure ( in mb ) Visibility ( mi km ) Precip ( " mm )
12:53 am 00:53 Clear 41 5 19 -7.2 41 41 NW 8 13 30.24 1024 10 16 0.00 0.00
1:53 am 01:53 Clear 41 5 20 -6.7 43 43 NW 6 9 30.24 1024 10 16 0.00 0.00
2:53 am 02:53 Clear 40 4.4 20 -6.7 45 45 NW 8 13 30.24 1024 10 16 0.00 0.00
3:53 am 03:53 Clear 39 3.9 19 -7.2 45 45 NNW 8 13 30.24 1024 10 16 0.00 0.00
4:53 am 04:53 Clear 39 3.9 19 -7.2 45 45 NW 8 13 30.25 1024 10 16 0.00 0.00
5:53 am 05:53 Clear 38 3.3 19 -7.2 46 46 NNW 8 13 30.25 1025 10 16 0.00 0.00
6:53 am 06:53 Clear 37 2.8 18 -7.8 46 46 NW 7 11 30.25 1024 10 16 0.00 0.00
7:53 am 07:53 Sunny 37 2.8 17 -8.3 44 44 NNW 8 13 30.26 1025 10 16 0.00 0.00
8:53 am 08:53 Sunny 40 4.4 17 -8.3 40 40 N 14 22 30.27 1025 10 16 0.00 0.00
9:53 am 09:53 Sunny 43 6.1 14 -10 31 31 NW 13 20 30.28 1025 10 16 0.00 0.00
10:53 am 10:53 Sunny 45 7.2 14 -10 29 29 NW 14 22 30.27 1025 10 16 0.00 0.00
11:53 am 11:53 Sunny 49 9.4 12 -11.1 22 22 WNW 13 20 30.26 1025 10 16 0.00 0.00
12:53 pm 12:53 Sunny 52 11.1 11 -11.7 19 19 NW 13 20 30.23 1024 10 16 0.00 0.00
1:53 pm 13:53 Sunny 53 11.7 10 -12.2 18 18 NW 13 20 30.20 1023 10 16 0.00 0.00
2:53 pm 14:53 Sunny 54 12.2 8 -13.3 16 16 WNW 18 30 30.19 1022 10 16 0.00 0.00
3:53 pm 15:53 Sunny 54 12.2 7 -13.9 15 15 NNW 9 15 30.19 1022 10 16 0.00 0.00
4:53 pm 16:53 Sunny 53 11.7 8 -13.3 16 16 NW 8 13 30.19 1022 10 16 0.00 0.00
5:53 pm 17:53 Clear 50 10 10 -12.2 20 20 Calm 30.19 1023 10 16 0.00 0.00
6:53 pm 18:53 Clear 46 7.8 16 -8.9 30 30 Calm 30.19 1023 10 16 0.00 0.00
7:53 pm 19:53 Clear 43 6.1 18 -7.8 37 37 Calm 30.19 1023 10 16 0.00 0.00
8:53 pm 20:53 Clear 43 6.1 13 -10.6 29 29 NW 6 9 30.19 1023 10 16 0.00 0.00
9:53 pm 21:53 Clear 42 5.6 12 -11.1 29 29 VRB 3 6 30.19 1022 10 16 0.00 0.00
10:53 pm 22:53 Clear 42 5.6 13 -10.6 30 30 NW 6 9 30.18 1022 10 16 0.00 0.00
11:53 pm 23:53 Clear 41 5 13 -10.6 32 32 NNW 5 7 30.17 1022 10 16 0.00 0.00

Powered by AerisWeather